Date,TemperatureHighF,TemperatureAvgF,TemperatureLowF,DewpointHighF,DewpointAvgF,DewpointLowF,HumidityHigh,HumidityAvg,HumidityLow,PressureMaxIn,PressureMinIn,WindSpeedMaxMPH,WindSpeedAvgMPH,GustSpeedMaxMPH,PrecipitationSumIn
2013-4-1,96.0,71.1,48.0,64.0,54.2,45.0,98,62,27,30.07,29.80,13,5,13,0.00
2013-4-2,81.0,60.5,43.0,66.0,55.4,43.0,100,84,60,30.01,29.85,19,11,26,1.28
2013-4-3,46.0,43.1,40.0,46.0,43.1,40.0,100,100,100,30.22,29.97,18,11,20,0.98
2013-4-4,69.0,51.3,41.0,51.0,44.4,39.0,100,81,44,30.29,30.07,13,7,17,0.98
2013-4-5,83.0,56.1,34.0,80.0,52.0,34.0,100,89,41,30.25,29.95,13,4,16,0.00
2013-4-6,94.0,70.1,51.0,60.0,53.7,48.0,93,61,30,29.98,29.72,16,8,16,0.00
2013-4-7,97.0,73.5,54.0,89.0,63.1,53.0,100,77,25,29.85,29.61,14,7,17,0.00
2013-4-8,93.0,73.6,60.0,89.0,67.1,58.0,100,83,36,29.73,29.49,17,8,20,0.00
2013-4-9,99.0,77.6,49.0,68.0,58.2,38.0,97,60,18,29.72,29.45,29,10,36,0.00
2013-4-10,56.0,45.3,34.0,53.0,41.6,34.0,100,88,62,30.03,29.72,23,12,25,0.05
2013-4-11,73.0,53.7,34.0,72.0,45.6,34.0,100,78,33,30.02,29.72,12,4,12,0.05
2013-4-12,91.0,65.4,41.0,54.0,45.1,39.0,95,55,22,29.96,29.75,13,6,15,0.00
2013-4-13,93.0,70.7,49.0,53.0,45.9,40.0,71,45,21,29.92,29.68,16,9,20,0.00
2013-4-14,97.0,73.1,49.0,64.0,48.7,39.0,98,53,14,29.75,29.49,18,8,23,0.00
2013-4-15,98.0,79.4,60.0,67.0,53.4,40.0,79,45,21,29.70,29.60,14,7,17,0.00
2013-4-16,103.0,81.6,64.0,68.0,64.0,56.0,96,60,28,29.82,29.66,17,9,19,0.00
2013-4-17,101.0,83.0,70.0,72.0,68.3,61.0,92,66,28,29.79,29.49,20,13,24,0.00
2013-4-18,73.0,55.0,42.0,71.0,45.3,34.0,100,74,37,30.16,29.55,29,14,29,0.03
2013-4-19,73.0,51.5,31.0,42.0,33.2,30.0,96,56,22,30.36,30.10,11,3,11,0.03
2013-4-20,86.0,62.2,38.0,42.0,37.1,31.0,78,45,20,30.14,29.83,20,9,22,0.00
2013-4-21,91.0,67.8,46.0,57.0,50.1,37.0,95,57,30,30.09,29.91,11,6,15,0.00
2013-4-22,96.0,73.3,52.0,88.0,62.2,52.0,100,74,30,30.01,29.73,14,8,19,0.00
2013-4-23,70.0,54.6,45.0,62.0,46.8,37.0,95,75,66,30.22,29.74,20,11,21,0.00
2013-4-24,67.0,50.7,35.0,40.0,35.3,30.0,83,58,33,30.36,30.14,16,9,18,0.00
2013-4-25,81.0,64.2,54.0,54.0,46.0,39.0,62,53,36,30.32,30.08,15,9,17,0.00
2013-4-26,98.0,74.6,59.0,63.0,56.7,47.0,84,59,22,30.09,29.89,16,8,18,0.00
2013-4-27,87.0,68.3,55.0,76.0,56.5,47.0,100,73,27,30.13,29.95,12,6,19,0.00
2013-4-28,100.0,71.4,45.0,66.0,51.5,44.0,97,58,18,30.03,29.78,13,4,13,0.00
2013-4-29,97.0,74.7,51.0,61.0,53.7,48.0,90,54,21,29.92,29.69,13,4,19,0.00
2013-4-30,104.0,77.9,56.0,90.0,62.9,53.0,100,69,21,29.79,29.59,17,7,17,0.00